FW8563 Weather Reports


Display with metric or nautical units.
time (UTC)temp
F
wind
direction
speed
MPH
gust
MPH
rain 1hr
in
rain 24hr
in
rain mn
in
humidity
%
barometer
mb
20260505183153 55 200 4.0 13.0 0.00 0.41 0.41 98 1016.5
20260505182653 55 155 4.0 11.0 0.00 0.41 0.41 98 1016.5
20260505182154 55 127 4.0 12.0 0.00 0.41 0.41 98 1016.6
20260505181655 55 134 4.0 12.0 0.00 0.41 0.41 98 1016.7
20260505180655 55 226 2.0 9.0 0.00 0.41 0.41 98 1016.6
20260505180152 55 95 3.0 8.0 0.00 0.41 0.41 98 1016.5
20260505175654 55 222 4.0 16.0 0.00 0.41 0.41 98 1016.5
20260505175153 55 231 4.0 16.0 0.00 0.41 0.41 98 1016.4
20260505174652 55 181 3.0 9.0 0.00 0.41 0.41 98 1016.4
20260505174152 55 188 4.0 13.0 0.00 0.41 0.41 98 1016.5
20260505173651 55 180 5.0 13.0 0.00 0.41 0.41 98 1016.4
20260505173147 55 167 4.0 17.0 0.00 0.41 0.41 98 1016.4
20260505172649 55 123 3.0 17.0 0.00 0.41 0.41 98 1016.2
20260505172149 55 218 4.0 10.0 0.00 0.41 0.41 98 1016.2
20260505171647 55 287 4.0 11.0 0.00 0.41 0.41 98 1016.4
20260505171147 55 146 4.0 12.0 0.00 0.41 0.41 98 1016.4
20260505170650 55 188 4.0 12.0 0.00 0.41 0.41 98 1016.5
20260505170147 55 196 4.0 9.0 0.00 0.41 0.41 98 1016.5
20260505165647 55 194 4.0 12.0 0.00 0.41 0.41 98 1016.5
20260505165146 55 240 4.0 12.0 0.00 0.41 0.41 98 1016.5
20260505164641 56 229 4.0 11.0 0.00 0.41 0.41 98 1016.6
20260505164142 56 179 4.0 11.0 0.00 0.41 0.41 98 1016.6
20260505163641 56 233 4.0 10.0 0.00 0.41 0.41 98 1016.6
20260505163143 56 157 4.0 9.0 0.00 0.41 0.41 98 1016.6
20260505162640 56 203 5.0 13.0 0.00 0.41 0.41 98 1016.6
20260505162140 56 208 5.0 13.0 0.00 0.41 0.41 98 1016.6
20260505161639 56 206 3.0 11.0 0.00 0.41 0.41 98 1016.6
20260505161143 56 94 3.0 11.0 0.00 0.41 0.41 98 1016.7
20260505160642 56 200 4.0 11.0 0.01 0.41 0.41 98 1016.7
20260505160143 56 217 3.0 10.0 0.01 0.41 0.41 98 1016.8
20260505153133 56 242 4.0 12.0 0.01 0.41 0.41 98 1016.8
20260505152628 56 136 3.0 12.0 0.01 0.41 0.41 98 1016.8
20260505152131 56 143 3.0 9.0 0.01 0.41 0.41 98 1016.8
20260505151629 56 154 4.0 13.0 0.01 0.41 0.41 98 1016.8
20260505151129 56 119 4.0 13.0 0.01 0.41 0.41 98 1016.8
20260505150629 56 175 4.0 14.0 0.00 0.40 0.40 98 1016.8
20260505150131 56 224 4.0 14.0 0.00 0.40 0.40 98 1016.8
20260505140621 56 152 1.0 6.0 0.00 0.40 0.40 98 1016.9
20260505140121 56 148 1.0 5.0 0.00 0.40 0.40 98 1016.9
20260505124615 55 150 2.0 8.0 0.07 0.40 0.40 98 1017.2
20260505124115 55 130 3.0 8.0 0.07 0.39 0.39 98 1017.2
20260505123616 55 238 2.0 8.0 0.06 0.39 0.39 98 1017.3
20260505122616 55 120 2.0 7.0 0.06 0.38 0.38 98 1017.5
20260505122115 55 152 3.0 7.0 0.05 0.36 0.37 98 1017.4
20260505121615 55 138 2.0 6.0 0.03 0.35 0.35 98 1017.5
20260505121111 55 150 2.0 6.0 0.02 0.34 0.34 98 1017.6
20260505120610 54 137 2.0 6.0 0.03 0.34 0.34 98 1017.5
20260505120111 54 133 2.0 6.0 0.02 0.33 0.33 98 1017.5
20260505115613 54 191 2.0 6.0 0.02 0.33 0.33 98 1017.5
20260505115111 54 226 2.0 6.0 0.02 0.33 0.33 98 1017.5
20260505114617 54 129 3.0 8.0 0.02 0.33 0.33 98 1017.6
20260505113609 54 171 3.0 10.0 0.02 0.32 0.32 98 1017.5
20260505113109 54 218 3.0 10.0 0.03 0.32 0.32 98 1017.6
20260505112605 54 228 4.0 11.0 0.02 0.31 0.31 98 1017.6
20260505112104 54 172 4.0 11.0 0.03 0.31 0.31 98 1017.5
20260505110602 54 94 5.0 11.0 0.02 0.31 0.31 98 1017.6
20260505102101 53 157 5.0 12.0 0.01 0.28 0.28 98 1017.6
20260505101101 53 231 4.0 10.0 0.01 0.28 0.28 98 1017.7
20260505100600 53 129 4.0 13.0 0.01 0.28 0.28 98 1017.6
20260505100100 53 155 4.0 13.0 0.02 0.28 0.28 98 1017.6
20260505095603 53 100 4.0 10.0 0.02 0.28 0.28 98 1017.6
20260505095101 53 126 4.0 11.0 0.02 0.28 0.28 98 1017.6
20260505094602 53 91 3.0 11.0 0.02 0.28 0.28 98 1017.6
20260505093558 52 161 3.0 11.0 0.03 0.28 0.28 98 1017.6
20260505093058 52 155 3.0 11.0 0.03 0.28 0.28 98 1017.8
20260505092056 52 174 3.0 10.0 0.02 0.28 0.28 98 1017.7
20260505091557 52 137 3.0 9.0 0.02 0.28 0.28 98 1017.7
20260505091055 52 162 4.0 12.0 0.02 0.28 0.28 98 1017.6
20260505090554 52 162 3.0 12.0 0.02 0.28 0.28 98 1017.5
20260505090052 52 160 3.0 8.0 0.02 0.27 0.27 98 1017.5
20260505085055 52 150 2.0 8.0 0.02 0.27 0.27 98 1017.4
20260505084555 52 117 2.0 6.0 0.01 0.26 0.26 98 1017.6
20260505084053 52 135 4.0 8.0 0.01 0.26 0.26 98 1017.5
20260505083552 52 155 4.0 8.0 0.00 0.25 0.25 98 1017.4
20260505083050 52 164 4.0 12.0 0.00 0.25 0.25 98 1017.5
20260505082550 52 134 4.0 12.0 0.00 0.25 0.25 98 1017.4
20260505082050 52 195 4.0 12.0 0.00 0.25 0.25 98 1017.5
20260505081550 52 125 4.0 12.0 0.00 0.25 0.25 98 1017.5
20260505081049 52 192 4.0 11.0 0.00 0.25 0.25 98 1017.5
20260505080550 52 210 5.0 11.0 0.00 0.25 0.25 98 1017.5
20260505075544 52 129 5.0 13.0 0.00 0.25 0.25 98 1017.5
20260505075038 52 169 4.0 12.0 0.00 0.25 0.25 98 1017.5
20260505074540 52 108 4.0 9.0 0.00 0.25 0.25 98 1017.4
20260505073543 52 186 5.0 10.0 0.00 0.25 0.25 98 1017.3
20260505073038 52 188 5.0 10.0 0.00 0.25 0.25 98 1017.3
20260505072038 52 188 5.0 14.0 0.00 0.25 0.25 98 1017.3
20260505071040 52 143 5.0 11.0 0.00 0.25 0.25 98 1017.2
20260505070537 52 200 5.0 13.0 0.00 0.25 0.25 98 1017.2
20260505065538 52 178 4.0 13.0 0.00 0.25 0.25 98 1017.3
20260505065038 52 137 4.0 12.0 0.02 0.25 0.25 97 1017.3
20260505064539 51 200 4.0 12.0 0.02 0.25 0.25 97 1017.3
20260505064031 51 198 4.0 13.0 0.03 0.25 0.25 97 1017.3
20260505063532 51 169 5.0 13.0 0.05 0.25 0.25 97 1017.2
20260505063031 51 150 5.0 13.0 0.06 0.25 0.25 97 1017.2
20260505062529 51 146 5.0 12.0 0.06 0.25 0.25 97 1017.2
20260505062030 51 131 4.0 11.0 0.06 0.25 0.25 97 1017.1
20260505061530 51 145 3.0 11.0 0.06 0.25 0.25 97 1017.0
20260505060530 51 176 4.0 11.0 0.06 0.25 0.25 97 1017.0
20260505060030 51 117 4.0 11.0 0.08 0.25 0.25 97 1017.0
20260505055530 51 150 3.0 8.0 0.08 0.25 0.25 97 1017.0
20260505055031 50 153 3.0 8.0 0.07 0.24 0.24 97 1017.1
20260505052527 51 99 2.0 6.0 0.09 0.20 0.20 97 1017.0
20260505052025 51 143 2.0 7.0 0.09 0.20 0.20 97 1017.0
20260505051526 51 160 2.0 7.0 0.08 0.19 0.19 97 1017.1
20260505051026 51 155 1.0 6.0 0.09 0.19 0.19 97 1017.1
20260505050525 51 148 2.0 7.0 0.10 0.19 0.19 97 1017.0
20260505041518 51 144 4.0 12.0 0.07 0.11 0.11 96 1016.6
20260505041018 51 129 3.0 9.0 0.07 0.10 0.10 96 1016.6
20260505035017 51 120 2.0 9.0 0.06 0.08 0.08 95 1016.8
20260505034518 51 108 2.0 6.0 0.06 0.08 0.08 95 1016.7
20260505034018 51 145 2.0 7.0 0.06 0.07 0.07 95 1016.8
20260505033519 51 134 2.0 7.0 0.05 0.06 0.07 95 1017.0
20260505033017 51 139 2.0 6.0 0.05 0.06 0.06 95 1016.9
20260505032520 52 152 2.0 6.0 0.05 0.06 0.06 94 1017.1
20260505032019 52 157 2.0 5.0 0.04 0.05 0.05 94 1017.2
20260505031519 52 143 2.0 7.0 0.03 0.04 0.04 94 1017.2
20260505031020 52 160 3.0 7.0 0.02 0.03 0.03 93 1017.3
20260505030517 52 157 3.0 7.0 0.02 0.03 0.03 93 1017.2
20260505030018 52 151 2.0 7.0 0.02 0.02 0.02 94 1017.3
20260505025017 52 141 2.0 6.0 0.01 0.02 0.02 94 1017.3
20260505024518 52 133 1.0 5.0 0.01 0.02 0.02 94 1017.4
20260505024018 53 181 2.0 7.0 0.01 0.02 0.02 94 1017.5
20260505023517 53 131 2.0 8.0 0.01 0.02 0.02 93 1017.5
20260505023020 53 110 2.0 8.0 0.00 0.01 0.01 93 1017.5
20260505022518 53 153 2.0 7.0 0.00 0.01 0.01 93 1017.4
20260505022020 52 99 2.0 7.0 0.01 0.01 0.01 93 1017.4
20260505021018 52 160 2.0 7.0 0.01 0.02 0.01 93 1017.5
20260505020517 52 109 2.0 6.0 0.01 0.02 0.01 93 1017.6
20260505020018 52 179 1.0 6.0 0.01 0.02 0.01 93 1017.7
20260505015517 52 157 2.0 7.0 0.01 0.02 0.01 92 1017.7
20260505015017 52 197 2.0 7.0 0.01 0.02 0.01 92 1017.8
20260505014516 52 141 1.0 5.0 0.01 0.02 0.01 92 1017.7
20260505014013 52 216 1.0 5.0 0.01 0.02 0.01 91 1017.7
20260505013505 52 183 1.0 5.0 0.01 0.02 0.01 91 1017.7
20260505013006 52 145 1.0 4.0 0.01 0.02 0.01 90 1017.8
20260505012504 53 140 2.0 7.0 0.01 0.02 0.01 89 1017.8
20260505012002 53 180 2.0 7.0 0.00 0.01 0.00 88 1017.9
20260505011459 53 151 1.0 8.0 0.00 0.01 0.00 88 1017.9
20260505011000 53 121 1.0 8.0 0.00 0.01 0.00 87 1018.0
20260505010458 53 96 1.0 6.0 0.00 0.01 0.00 86 1018.0
20260505005957 53 139 2.0 9.0 0.00 0.01 0.00 85 1018.1
20260505005457 53 169 1.0 9.0 0.00 0.01 0.00 84 1018.1
20260505004958 53 147 0.0 4.0 0.00 0.01 0.00 84 1018.1
20260505003958 53 153 1.0 4.0 0.00 0.01 0.00 85 1018.2
20260505003455 53 162 1.0 4.0 0.00 0.01 0.00 85 1018.4
20260505002955 53 174 1.0 4.0 0.00 0.01 0.00 85 1018.5
20260505001957 53 179 0.0 3.0 0.00 0.01 0.00 85 1018.5
20260505000453 53 132 0.0 4.0 0.00 0.01 0.00 87 1018.7
20260504235452 54 148 1.0 4.0 0.00 0.01 0.00 88 1018.9
20260504234951 54 132 1.0 5.0 0.00 0.01 0.00 89 1018.8
20260504234449 54 159 1.0 5.0 0.00 0.01 0.00 89 1018.8
20260504233949 54 123 2.0 7.0 0.00 0.01 0.00 90 1018.9
20260504233449 54 115 2.0 7.0 0.00 0.01 0.00 90 1018.8
20260504232950 54 111 2.0 5.0 0.00 0.01 0.00 90 1018.9
20260504232449 54 122 2.0 5.0 0.00 0.01 0.00 90 1019.0
20260504231948 54 126 2.0 6.0 0.00 0.01 0.00 89 1019.2
20260504231446 54 167 1.0 6.0 0.00 0.01 0.00 89 1019.1
20260504230947 54 136 1.0 6.0 0.00 0.01 0.00 89 1019.2
20260504225944 53 148 0.0 4.0 0.00 0.01 0.00 90 1019.4
20260504225443 53 157 1.0 3.0 0.00 0.01 0.00 89 1019.5
20260504224944 53 168 1.0 4.0 0.00 0.01 0.00 89 1019.6
20260504223442 53 150 0.0 4.0 0.00 0.01 0.00 89 1019.7
20260504222944 53 98 0.0 2.0 0.00 0.01 0.00 89 1019.6
20260504221945 53 146 1.0 4.0 0.00 0.01 0.00 89 1019.8
20260504220942 53 238 0.0 4.0 0.00 0.01 0.00 88 1019.7
20260504220436 53 204 1.0 6.0 0.00 0.01 0.00 89 1019.8
20260504215937 53 167 1.0 6.0 0.00 0.01 0.01 90 1019.6
20260504215437 53 162 0.0 3.0 0.00 0.01 0.01 90 1019.7
20260504214937 54 186 1.0 3.0 0.00 0.01 0.01 91 1019.7
20260504214437 54 96 1.0 3.0 0.00 0.01 0.01 91 1019.8
20260504213936 54 150 0.0 3.0 0.00 0.01 0.01 91 1019.8
20260504213438 54 137 0.0 3.0 0.00 0.01 0.01 91 1019.9
20260504212937 54 193 0.0 2.0 0.00 0.01 0.01 91 1020.0
20260504212437 54 163 0.0 3.0 0.00 0.01 0.01 91 1019.9
20260504211935 54 247 0.0 3.0 0.00 0.01 0.01 90 1020.0
20260504211435 54 211 0.0 3.0 0.00 0.01 0.01 90 1020.0
20260504210935 54 170 0.0 2.0 0.00 0.01 0.01 89 1020.1
20260504210436 54 211 0.0 2.0 0.00 0.01 0.01 89 1020.1
20260504205932 54 144 0.0 2.0 0.00 0.01 0.01 89 1020.1
20260504205429 54 204 0.0 3.0 0.00 0.01 0.01 88 1020.2
20260504204421 54 221 0.0 3.0 0.00 0.01 0.01 88 1020.1
20260504203919 54 134 0.0 3.0 0.00 0.01 0.01 88 1020.0
20260504203416 54 212 0.0 2.0 0.00 0.01 0.01 88 1020.1
20260504202417 54 193 0.0 3.0 0.00 0.01 0.01 87 1020.0
20260504201919 55 211 1.0 5.0 0.00 0.01 0.01 87 1020.0
20260504201414 55 227 1.0 5.0 0.00 0.01 0.01 87 1020.1
20260504200914 55 214 2.0 6.0 0.00 0.01 0.01 87 1020.1
20260504200414 55 212 1.0 6.0 0.00 0.01 0.01 87 1020.0
20260504195912 55 210 0.0 3.0 0.00 0.01 0.01 86 1020.0
20260504195413 55 216 0.0 0.0 0.00 0.01 0.01 86 1019.9
20260504194918 55 207 0.0 3.0 0.00 0.01 0.01 86 1019.9
20260504194414 55 216 0.0 3.0 0.00 0.01 0.01 85 1019.9
20260504193913 55 212 0.0 2.0 0.00 0.01 0.01 85 1019.8
20260504193410 55 233 0.0 4.0 0.00 0.01 0.01 85 1019.9
20260504192910 55 195 0.0 4.0 0.00 0.01 0.01 84 1019.8
20260504192412 55 221 0.0 3.0 0.00 0.01 0.01 84 1019.8
20260504191909 55 200 0.0 4.0 0.00 0.01 0.01 83 1019.8
20260504191415 55 209 1.0 4.0 0.00 0.01 0.01 82 1019.8
20260504190912 56 221 1.0 4.0 0.00 0.01 0.01 82 1019.7
20260504190407 56 187 1.0 4.0 0.00 0.01 0.01 81 1019.8
20260504185907 56 191 2.0 6.0 0.00 0.01 0.01 81 1019.7
20260504185429 56 194 2.0 6.0 0.00 0.01 0.01 80 1019.7
20260504184907 56 221 1.0 6.0 0.00 0.01 0.01 79 1019.6
20260504184406 56 229 1.0 4.0 0.00 0.01 0.01 78 1019.7
20260504183907 56 199 1.0 4.0 0.00 0.01 0.01 78 1019.7
20260504183405 57 224 1.0 5.0 0.00 0.01 0.01 77 1019.7